Data start date =,8/11/1934
Data end date/time =,5/7/2024 12:00
Vertical Datum =,MSL1912
""
Date/Time,LockDam_03-Tailwater
,Elev
UTC,ft
,Ave
8/12/1934 12:00,662.84
8/13/1934 12:00,662.80
8/14/1934 12:00,662.74
8/15/1934 12:00,662.76
8/16/1934 12:00,662.70
8/17/1934 12:00,662.66
8/18/1934 12:00,662.62
8/19/1934 12:00,662.67
8/20/1934 12:00,662.66
8/21/1934 12:00,662.64
8/22/1934 12:00,662.60
8/23/1934 12:00,662.60
8/24/1934 12:00,662.57
8/25/1934 12:00,662.53
8/26/1934 12:00,662.52
8/27/1934 12:00,662.52
8/28/1934 12:00,662.51
8/29/1934 12:00,662.50
8/30/1934 12:00,662.49
8/31/1934 12:00,662.50
9/1/1934 12:00,662.50
9/2/1934 12:00,662.63
9/3/1934 12:00,662.68
9/4/1934 12:00,662.65
9/5/1934 12:00,662.85
9/6/1934 12:00,662.86
9/7/1934 12:00,662.90
9/8/1934 12:00,662.96
9/9/1934 12:00,662.94
9/10/1934 12:00,662.92
9/11/1934 12:00,662.91
9/12/1934 12:00,662.95
9/13/1934 12:00,663.07
9/14/1934 12:00,663.06
9/15/1934 12:00,663.00
9/16/1934 12:00,663.14
9/17/1934 12:00,663.14
9/18/1934 12:00,663.16
9/19/1934 12:00,663.18
9/20/1934 12:00,663.18
9/21/1934 12:00,663.17
9/22/1934 12:00,663.14
9/23/1934 12:00,663.14
9/24/1934 12:00,663.14
9/25/1934 12:00,664.50
9/26/1934 12:00,665.26
9/27/1934 12:00,665.36
9/28/1934 12:00,665.83
9/29/1934 12:00,666.56
9/30/1934 12:00,667.32
10/1/1934 12:00,667.90
10/2/1934 12:00,668.07
10/3/1934 12:00,668.09
10/4/1934 12:00,667.88
10/5/1934 12:00,667.69
10/6/1934 12:00,667.48
10/7/1934 12:00,667.29
10/8/1934 12:00,667.10
10/9/1934 12:00,667.00
10/10/1934 12:00,666.74
10/11/1934 12:00,666.56
10/12/1934 12:00,666.47
10/13/1934 12:00,666.35
10/14/1934 12:00,666.17
10/15/1934 12:00,666.00
10/16/1934 12:00,665.88
10/17/1934 12:00,665.59
10/18/1934 12:00,665.62
10/19/1934 12:00,665.54
10/20/1934 12:00,665.78
10/21/1934 12:00,666.20
10/22/1934 12:00,666.30
10/23/1934 12:00,666.36
10/24/1934 12:00,666.56
10/25/1934 12:00,666.82
10/26/1934 12:00,667.06
10/27/1934 12:00,667.02
10/28/1934 12:00,667.16
10/29/1934 12:00,667.16
10/30/1934 12:00,667.10
10/31/1934 12:00,666.98
11/1/1934 12:00,666.80
11/2/1934 12:00,666.76
11/3/1934 12:00,666.66
11/4/1934 12:00,666.50
11/5/1934 12:00,666.32
11/6/1934 12:00,666.07
11/7/1934 12:00,666.10
11/8/1934 12:00,666.00
11/9/1934 12:00,665.90
11/10/1934 12:00,665.90
11/11/1934 12:00,665.76
11/12/1934 12:00,665.60
11/13/1934 12:00,665.52
11/14/1934 12:00,665.50
11/15/1934 12:00,665.56
11/16/1934 12:00,665.56
11/17/1934 12:00,665.50
11/18/1934 12:00,665.54
11/19/1934 12:00,665.47
11/20/1934 12:00,665.61
11/21/1934 12:00,665.82
11/22/1934 12:00,665.90
11/23/1934 12:00,666.05
11/24/1934 12:00,666.37
11/25/1934 12:00,666.80
11/26/1934 12:00,667.08
11/27/1934 12:00,667.13
11/28/1934 12:00,667.10
11/29/1934 12:00,667.22
11/30/1934 12:00,667.28
12/1/1934 12:00,667.20
12/2/1934 12:00,667.20
12/3/1934 12:00,667.25
12/4/1934 12:00,666.74
12/5/1934 12:00,666.64
12/6/1934 12:00,666.40
12/7/1934 12:00,666.30
12/8/1934 12:00,666.20
12/9/1934 12:00,666.12
12/10/1934 12:00,666.02
12/11/1934 12:00,665.88
12/12/1934 12:00,665.80
12/13/1934 12:00,665.88
12/14/1934 12:00,665.80
12/15/1934 12:00,665.82
12/16/1934 12:00,665.77
12/17/1934 12:00,665.74
12/18/1934 12:00,665.70
12/19/1934 12:00,665.66
12/20/1934 12:00,665.70
12/21/1934 12:00,665.75
12/22/1934 12:00,665.72
12/23/1934 12:00,665.80
12/24/1934 12:00,665.78
12/25/1934 12:00,665.76
12/26/1934 12:00,665.58
12/27/1934 12:00,665.72
12/28/1934 12:00,665.80
12/29/1934 12:00,665.88
12/30/1934 12:00,665.92
12/31/1934 12:00,665.90
1/1/1935 12:00,665.80
1/2/1935 12:00,665.84
1/3/1935 12:00,665.62
1/4/1935 12:00,665.70
1/5/1935 12:00,665.80
1/6/1935 12:00,665.85
1/7/1935 12:00,665.88
1/8/1935 12:00,665.88
1/9/1935 12:00,665.85
1/10/1935 12:00,665.88
1/11/1935 12:00,665.94
1/12/1935 12:00,665.86
1/13/1935 12:00,665.42
1/14/1935 12:00,665.40
1/15/1935 12:00,665.42
1/16/1935 12:00,665.60
1/17/1935 12:00,665.75
1/18/1935 12:00,665.80
1/19/1935 12:00,665.85
1/20/1935 12:00,665.80
1/21/1935 12:00,665.70
1/22/1935 12:00,665.80
1/23/1935 12:00,665.75
1/24/1935 12:00,665.82
1/25/1935 12:00,665.85
1/26/1935 12:00,665.88
1/27/1935 12:00,665.88
1/28/1935 12:00,665.88
1/29/1935 12:00,665.82
1/30/1935 12:00,665.80
1/31/1935 12:00,665.94
2/1/1935 12:00,666.04
2/2/1935 12:00,666.17
2/3/1935 12:00,666.28
2/4/1935 12:00,666.26
2/5/1935 12:00,666.26
2/6/1935 12:00,666.16
2/7/1935 12:00,666.20
2/8/1935 12:00,666.30
2/9/1935 12:00,666.34
2/10/1935 12:00,666.38
2/11/1935 12:00,666.38
2/12/1935 12:00,666.36
2/13/1935 12:00,666.50
2/14/1935 12:00,666.70
2/15/1935 12:00,666.72
2/16/1935 12:00,666.66
2/17/1935 12:00,666.54
2/18/1935 12:00,666.42
2/19/1935 12:00,666.20
2/20/1935 12:00,666.17
2/21/1935 12:00,666.18
2/22/1935 12:00,666.20
2/23/1935 12:00,666.20
2/24/1935 12:00,666.14
2/25/1935 12:00,666.62
2/26/1935 12:00,666.54
2/27/1935 12:00,666.48
2/28/1935 12:00,666.42
3/1/1935 12:00,666.48
3/2/1935 12:00,666.62
3/3/1935 12:00,666.42
3/4/1935 12:00,666.44
3/5/1935 12:00,666.39
3/6/1935 12:00,666.39
3/7/1935 12:00,666.58
3/8/1935 12:00,666.67
3/9/1935 12:00,666.68
3/10/1935 12:00,666.92
3/11/1935 12:00,667.04
3/12/1935 12:00,667.04
3/13/1935 12:00,667.20
3/14/1935 12:00,667.28
3/15/1935 12:00,667.56
3/16/1935 12:00,667.98
3/17/1935 12:00,668.30
3/18/1935 12:00,668.50
3/19/1935 12:00,668.90
3/20/1935 12:00,669.40
3/21/1935 12:00,669.94
3/22/1935 12:00,670.62
3/23/1935 12:00,671.20
3/24/1935 12:00,672.36
3/25/1935 12:00,673.50
3/26/1935 12:00,674.50
3/27/1935 12:00,675.06
3/28/1935 12:00,675.26
3/29/1935 12:00,675.24
3/30/1935 12:00,674.99
3/31/1935 12:00,674.80
4/1/1935 12:00,674.48
4/2/1935 12:00,674.11
4/3/1935 12:00,673.80
4/4/1935 12:00,673.48
4/5/1935 12:00,673.03
4/6/1935 12:00,672.77
4/7/1935 12:00,672.46
4/8/1935 12:00,671.84
4/9/1935 12:00,671.30
4/10/1935 12:00,671.10
4/11/1935 12:00,670.98
4/12/1935 12:00,670.80
4/13/1935 12:00,670.65
4/14/1935 12:00,670.54
4/15/1935 12:00,669.82
4/16/1935 12:00,670.00
4/17/1935 12:00,669.94
4/18/1935 12:00,669.70
4/19/1935 12:00,669.56
4/20/1935 12:00,669.54
4/21/1935 12:00,669.54
4/22/1935 12:00,669.15
4/23/1935 12:00,668.96
4/24/1935 12:00,668.94
4/25/1935 12:00,668.90
4/26/1935 12:00,668.85
4/27/1935 12:00,668.86
4/28/1935 12:00,668.85
4/29/1935 12:00,668.52
4/30/1935 12:00,668.42
5/1/1935 12:00,668.62
5/2/1935 12:00,668.87
5/3/1935 12:00,668.94
5/4/1935 12:00,669.08
5/5/1935 12:00,669.15
5/6/1935 12:00,669.18
5/7/1935 12:00,669.24
5/8/1935 12:00,669.36
5/9/1935 12:00,669.48
5/10/1935 12:00,669.54
5/11/1935 12:00,669.74
5/12/1935 12:00,670.12
5/13/1935 12:00,670.28
5/14/1935 12:00,670.50
5/15/1935 12:00,670.58
5/16/1935 12:00,671.00
5/17/1935 12:00,671.14
5/18/1935 12:00,671.20
5/19/1935 12:00,671.26
5/20/1935 12:00,671.04
5/21/1935 12:00,670.70
5/22/1935 12:00,670.66
5/23/1935 12:00,670.44
5/24/1935 12:00,670.24
5/25/1935 12:00,670.10
5/26/1935 12:00,669.74
5/27/1935 12:00,669.54
5/28/1935 12:00,669.12
5/29/1935 12:00,668.80
5/30/1935 12:00,668.62
5/31/1935 12:00,668.44
6/1/1935 12:00,668.34
6/2/1935 12:00,668.30
6/3/1935 12:00,667.90
6/4/1935 12:00,667.70
6/5/1935 12:00,667.60
6/6/1935 12:00,667.56
6/7/1935 12:00,667.54
6/8/1935 12:00,667.42
6/9/1935 12:00,667.44
6/10/1935 12:00,667.42
6/11/1935 12:00,667.25
6/12/1935 12:00,667.24
6/13/1935 12:00,667.22
6/14/1935 12:00,667.16
6/15/1935 12:00,667.22
6/16/1935 12:00,667.50
6/17/1935 12:00,668.20
6/18/1935 12:00,668.46
6/19/1935 12:00,668.76
6/20/1935 12:00,669.04
6/21/1935 12:00,669.42
6/22/1935 12:00,669.78
6/23/1935 12:00,670.10
6/24/1935 12:00,670.34
6/25/1935 12:00,670.52
6/26/1935 12:00,670.50
6/27/1935 12:00,670.38
6/28/1935 12:00,670.24
6/29/1935 12:00,670.12
6/30/1935 12:00,670.12
7/1/1935 12:00,669.06
7/2/1935 12:00,669.25
7/3/1935 12:00,669.55
7/4/1935 12:00,669.86
7/5/1935 12:00,670.18
7/6/1935 12:00,670.36
7/7/1935 12:00,670.54
7/8/1935 12:00,670.90
7/9/1935 12:00,671.16
7/10/1935 12:00,671.44
7/11/1935 12:00,671.50
7/12/1935 12:00,671.30
7/13/1935 12:00,671.00
7/14/1935 12:00,670.80
7/15/1935 12:00,670.50
7/16/1935 12:00,670.10
7/17/1935 12:00,669.84
7/18/1935 12:00,669.70
7/19/1935 12:00,669.36
7/20/1935 12:00,669.14
7/21/1935 12:00,668.88
7/22/1935 12:00,668.41
7/23/1935 12:00,668.36
7/24/1935 12:00,668.32
7/25/1935 12:00,668.28
7/26/1935 12:00,668.16
7/27/1935 12:00,668.10
7/28/1935 12:00,668.10
7/29/1935 12:00,668.02
7/30/1935 12:00,667.96
7/31/1935 12:00,667.94
8/1/1935 12:00,667.82
8/2/1935 12:00,667.78
8/3/1935 12:00,667.78
8/4/1935 12:00,667.74
8/5/1935 12:00,667.64
8/6/1935 12:00,667.84
8/7/1935 12:00,667.92
8/8/1935 12:00,668.30
8/9/1935 12:00,668.78
8/10/1935 12:00,668.84
8/11/1935 12:00,668.82
8/12/1935 12:00,668.54
8/13/1935 12:00,668.36
8/14/1935 12:00,668.16
8/15/1935 12:00,667.96
8/16/1935 12:00,667.94
8/17/1935 12:00,667.82
8/18/1935 12:00,667.74
8/19/1935 12:00,667.78
8/20/1935 12:00,667.76
8/21/1935 12:00,668.00
8/22/1935 12:00,668.40
8/23/1935 12:00,668.60
8/24/1935 12:00,668.62
8/25/1935 12:00,668.82
8/26/1935 12:00,668.86
8/27/1935 12:00,668.80
8/28/1935 12:00,668.62
8/29/1935 12:00,668.70
8/30/1935 12:00,668.70
8/31/1935 12:00,668.66
9/1/1935 12:00,668.60
9/2/1935 12:00,668.48
9/3/1935 12:00,668.36
9/4/1935 12:00,668.19
9/5/1935 12:00,668.02
9/6/1935 12:00,668.03
9/7/1935 12:00,668.13
9/8/1935 12:00,668.08
9/9/1935 12:00,668.00
9/10/1935 12:00,667.89
9/11/1935 12:00,667.85
9/12/1935 12:00,667.88
9/13/1935 12:00,667.84
9/14/1935 12:00,667.81
9/15/1935 12:00,667.83
9/16/1935 12:00,667.78
9/17/1935 12:00,667.65
9/18/1935 12:00,667.64
9/19/1935 12:00,667.64
9/20/1935 12:00,667.65
9/21/1935 12:00,667.57
9/22/1935 12:00,667.60
9/23/1935 12:00,667.63
9/24/1935 12:00,667.48
9/25/1935 12:00,667.42
9/26/1935 12:00,667.35
9/27/1935 12:00,667.32
9/28/1935 12:00,667.28
9/29/1935 12:00,667.13
9/30/1935 12:00,667.05
10/1/1935 12:00,666.96
10/2/1935 12:00,666.94
10/3/1935 12:00,666.64
10/4/1935 12:00,666.70
10/5/1935 12:00,666.76
10/6/1935 12:00,666.74
10/7/1935 12:00,666.70
10/8/1935 12:00,666.55
10/9/1935 12:00,666.53
10/10/1935 12:00,666.44
10/11/1935 12:00,666.40
10/12/1935 12:00,666.44
10/13/1935 12:00,666.55
10/14/1935 12:00,666.52
10/15/1935 12:00,666.58
10/16/1935 12:00,666.78
10/17/1935 12:00,666.96
10/18/1935 12:00,667.08
10/19/1935 12:00,667.24
10/20/1935 12:00,667.36
10/21/1935 12:00,667.36
10/22/1935 12:00,667.56
10/23/1935 12:00,667.46
10/24/1935 12:00,667.44
10/25/1935 12:00,667.44
10/26/1935 12:00,667.49
10/27/1935 12:00,667.52
10/28/1935 12:00,667.58
10/29/1935 12:00,667.59
10/30/1935 12:00,667.68
10/31/1935 12:00,667.68
11/1/1935 12:00,667.74
11/2/1935 12:00,667.86
11/3/1935 12:00,668.06
11/4/1935 12:00,668.12
11/5/1935 12:00,668.17
11/6/1935 12:00,668.19
11/7/1935 12:00,668.18
11/8/1935 12:00,668.18
11/9/1935 12:00,668.06
11/10/1935 12:00,668.01
11/11/1935 12:00,667.92
11/12/1935 12:00,667.89
11/13/1935 12:00,667.77
11/14/1935 12:00,667.77
11/15/1935 12:00,667.70
11/16/1935 12:00,667.73
11/17/1935 12:00,667.75
11/18/1935 12:00,667.75
11/19/1935 12:00,667.73
11/20/1935 12:00,667.60
11/21/1935 12:00,667.44
11/22/1935 12:00,667.42
11/23/1935 12:00,667.31
11/24/1935 12:00,667.33
11/25/1935 12:00,667.26
11/26/1935 12:00,667.25
11/27/1935 12:00,667.36
11/28/1935 12:00,667.37
11/29/1935 12:00,667.62
11/30/1935 12:00,667.48
12/1/1935 12:00,667.59
12/2/1935 12:00,667.78
12/3/1935 12:00,667.72
12/4/1935 12:00,667.77
12/5/1935 12:00,667.75
12/6/1935 12:00,667.69
12/7/1935 12:00,667.63
12/8/1935 12:00,667.67
12/9/1935 12:00,667.69
12/10/1935 12:00,667.75
12/11/1935 12:00,667.73
12/12/1935 12:00,667.72
12/13/1935 12:00,667.68
12/14/1935 12:00,667.57
12/15/1935 12:00,667.53
12/16/1935 12:00,667.53
12/17/1935 12:00,667.46
12/18/1935 12:00,667.46
12/19/1935 12:00,667.49
12/20/1935 12:00,667.43
12/21/1935 12:00,667.44
12/22/1935 12:00,667.54
12/23/1935 12:00,667.64
12/24/1935 12:00,667.44
12/25/1935 12:00,667.38
12/26/1935 12:00,667.35
12/27/1935 12:00,667.32
12/28/1935 12:00,667.34
12/29/1935 12:00,667.46
12/30/1935 12:00,667.53
12/31/1935 12:00,667.50
1/1/1936 12:00,667.60
1/2/1936 12:00,667.67
1/3/1936 12:00,667.69
1/4/1936 12:00,667.80
1/5/1936 12:00,667.80
1/6/1936 12:00,667.73
1/7/1936 12:00,667.61
1/8/1936 12:00,667.64
1/9/1936 12:00,667.74
1/10/1936 12:00,667.77
1/11/1936 12:00,667.82
1/12/1936 12:00,667.84
1/13/1936 12:00,667.70
1/14/1936 12:00,667.67
1/15/1936 12:00,667.63
1/16/1936 12:00,667.62
1/17/1936 12:00,667.70
1/18/1936 12:00,667.68
1/19/1936 12:00,667.69
1/20/1936 12:00,667.70
1/21/1936 12:00,667.61
1/22/1936 12:00,667.60
1/23/1936 12:00,667.64
1/24/1936 12:00,667.70
1/25/1936 12:00,667.73
1/26/1936 12:00,667.74
1/27/1936 12:00,667.70
1/28/1936 12:00,667.63
1/29/1936 12:00,667.61
1/30/1936 12:00,667.62
1/31/1936 12:00,667.71
2/1/1936 12:00,667.73
2/2/1936 12:00,667.67
2/3/1936 12:00,667.65
2/4/1936 12:00,667.58
2/5/1936 12:00,667.61
2/6/1936 12:00,667.63
2/7/1936 12:00,667.68
2/8/1936 12:00,667.71
2/9/1936 12:00,667.71
2/10/1936 12:00,667.70
2/11/1936 12:00,667.70
2/12/1936 12:00,667.69
2/13/1936 12:00,667.64
2/14/1936 12:00,667.64
2/15/1936 12:00,667.68
2/16/1936 12:00,667.67
2/17/1936 12:00,667.68
2/18/1936 12:00,667.69
2/19/1936 12:00,667.64
2/20/1936 12:00,667.74
2/21/1936 12:00,667.76
2/22/1936 12:00,667.77
2/23/1936 12:00,667.80
2/24/1936 12:00,667.77
2/25/1936 12:00,667.70
2/26/1936 12:00,667.73
2/27/1936 12:00,667.78
2/28/1936 12:00,667.90
2/29/1936 12:00,667.84
3/1/1936 12:00,667.76
3/2/1936 12:00,667.84
3/3/1936 12:00,667.71
3/4/1936 12:00,667.70
3/5/1936 12:00,667.75
3/6/1936 12:00,667.73
3/7/1936 12:00,667.88
3/8/1936 12:00,667.88
3/9/1936 12:00,667.85
3/10/1936 12:00,667.96
3/11/1936 12:00,668.18
3/12/1936 12:00,668.62
3/13/1936 12:00,668.70
3/14/1936 12:00,668.82
3/15/1936 12:00,668.91
3/16/1936 12:00,668.80
3/17/1936 12:00,668.65
3/18/1936 12:00,668.59
3/19/1936 12:00,668.87
3/20/1936 12:00,669.45
3/21/1936 12:00,670.60
3/22/1936 12:00,671.95
3/23/1936 12:00,673.13
3/24/1936 12:00,674.19
3/25/1936 12:00,674.78
3/26/1936 12:00,675.43
3/27/1936 12:00,675.95
3/28/1936 12:00,676.23
3/29/1936 12:00,676.45
3/30/1936 12:00,676.62
3/31/1936 12:00,676.55
4/1/1936 12:00,676.60
4/2/1936 12:00,676.42
4/3/1936 12:00,676.26
4/4/1936 12:00,676.00
4/5/1936 12:00,675.78
4/6/1936 12:00,675.41
4/7/1936 12:00,675.03
4/8/1936 12:00,674.75
4/9/1936 12:00,674.41
4/10/1936 12:00,674.18
4/11/1936 12:00,674.09
4/12/1936 12:00,674.26
4/13/1936 12:00,674.57
4/14/1936 12:00,675.33
4/15/1936 12:00,676.00
4/16/1936 12:00,676.65
4/17/1936 12:00,676.85
4/18/1936 12:00,677.13
4/19/1936 12:00,677.20
4/20/1936 12:00,677.12
4/21/1936 12:00,676.73
4/22/1936 12:00,676.40
4/23/1936 12:00,675.97
4/24/1936 12:00,675.65
4/25/1936 12:00,675.25
4/26/1936 12:00,674.90
4/27/1936 12:00,674.45
4/28/1936 12:00,674.15
4/29/1936 12:00,673.85
4/30/1936 12:00,673.76
5/1/1936 12:00,673.68
5/2/1936 12:00,673.58
5/3/1936 12:00,673.69
5/4/1936 12:00,674.05
5/5/1936 12:00,674.36
5/6/1936 12:00,674.55
5/7/1936 12:00,674.64
5/8/1936 12:00,674.84
5/9/1936 12:00,675.15
5/10/1936 12:00,675.50
5/11/1936 12:00,675.75
5/12/1936 12:00,675.72
5/13/1936 12:00,675.50
5/14/1936 12:00,675.32
5/15/1936 12:00,675.09
5/16/1936 12:00,674.66
5/17/1936 12:00,674.42
5/18/1936 12:00,674.16
5/19/1936 12:00,673.82
5/20/1936 12:00,673.56
5/21/1936 12:00,673.25
5/22/1936 12:00,672.97
5/23/1936 12:00,672.74
5/24/1936 12:00,672.39
5/25/1936 12:00,672.00
5/26/1936 12:00,671.47
5/27/1936 12:00,671.06
5/28/1936 12:00,670.65
5/29/1936 12:00,670.55
5/30/1936 12:00,670.27
5/31/1936 12:00,669.91
6/1/1936 12:00,669.96
6/2/1936 12:00,669.35
6/3/1936 12:00,669.15
6/4/1936 12:00,668.80
6/5/1936 12:00,668.80
6/6/1936 12:00,668.85
6/7/1936 12:00,668.80
6/8/1936 12:00,668.68
6/9/1936 12:00,668.61
6/10/1936 12:00,668.50
6/11/1936 12:00,668.35
6/12/1936 12:00,668.32
6/13/1936 12:00,668.18
6/14/1936 12:00,668.05
6/15/1936 12:00,667.92
6/16/1936 12:00,667.83
6/17/1936 12:00,667.81
6/18/1936 12:00,667.65
6/19/1936 12:00,667.73
6/20/1936 12:00,667.65
6/21/1936 12:00,667.57
6/22/1936 12:00,667.49
6/23/1936 12:00,667.44
6/24/1936 12:00,667.42
6/25/1936 12:00,667.26
6/26/1936 12:00,667.24
6/27/1936 12:00,667.18
6/28/1936 12:00,667.12
6/29/1936 12:00,667.04
6/30/1936 12:00,666.94
7/1/1936 12:00,666.86
7/2/1936 12:00,666.72
7/3/1936 12:00,666.63
7/4/1936 12:00,666.73
7/5/1936 12:00,666.66
7/6/1936 12:00,666.50
7/7/1936 12:00,666.39
7/8/1936 12:00,666.30
7/9/1936 12:00,666.25
7/10/1936 12:00,666.27
7/11/1936 12:00,666.31
7/12/1936 12:00,666.25
7/13/1936 12:00,666.21
7/14/1936 12:00,666.17
7/15/1936 12:00,666.11
7/16/1936 12:00,666.03
7/17/1936 12:00,666.06
7/18/1936 12:00,666.12
7/19/1936 12:00,666.13
7/20/1936 12:00,666.08
7/21/1936 12:00,666.16
7/22/1936 12:00,666.15
7/23/1936 12:00,666.27
7/24/1936 12:00,666.30
7/25/1936 12:00,666.34
7/26/1936 12:00,666.33
7/27/1936 12:00,666.44
7/28/1936 12:00,666.35
7/29/1936 12:00,666.32
7/30/1936 12:00,666.25
7/31/1936 12:00,666.30
8/1/1936 12:00,666.35
8/2/1936 12:00,666.36
8/3/1936 12:00,666.39
8/4/1936 12:00,666.39
8/5/1936 12:00,666.45
8/6/1936 12:00,666.46
8/7/1936 12:00,666.45
8/8/1936 12:00,666.47
8/9/1936 12:00,666.40
8/10/1936 12:00,666.35
8/11/1936 12:00,666.37
8/12/1936 12:00,666.34
8/13/1936 12:00,666.33
8/14/1936 12:00,666.39
8/15/1936 12:00,666.40
8/16/1936 12:00,666.40
8/17/1936 12:00,666.50
8/18/1936 12:00,666.57
8/19/1936 12:00,666.44
8/20/1936 12:00,666.55
8/21/1936 12:00,666.80
8/22/1936 12:00,667.10
8/23/1936 12:00,666.98
8/24/1936 12:00,667.20
8/25/1936 12:00,667.50
8/26/1936 12:00,667.25
8/27/1936 12:00,667.30
8/28/1936 12:00,667.45
8/29/1936 12:00,667.10
8/30/1936 12:00,667.03
8/31/1936 12:00,667.20
9/1/1936 12:00,667.20
9/2/1936 12:00,667.25
9/3/1936 12:00,667.32
9/4/1936 12:00,667.30
9/5/1936 12:00,667.30
9/6/1936 12:00,667.30
9/7/1936 12:00,667.28
9/8/1936 12:00,667.18
9/9/1936 12:00,667.15
9/10/1936 12:00,667.25
9/11/1936 12:00,667.25
9/12/1936 12:00,667.25
9/13/1936 12:00,667.38
9/14/1936 12:00,667.43
9/15/1936 12:00,667.45
9/16/1936 12:00,667.33
9/17/1936 12:00,667.30
9/18/1936 12:00,667.32
9/19/1936 12:00,667.34
9/20/1936 12:00,667.33
9/21/1936 12:00,667.34
9/22/1936 12:00,667.35
9/23/1936 12:00,667.25
9/24/1936 12:00,667.10
9/25/1936 12:00,667.20
9/26/1936 12:00,667.24
9/27/1936 12:00,667.24
9/28/1936 12:00,667.04
9/29/1936 12:00,667.10
9/30/1936 12:00,667.10
10/1/1936 12:00,666.95
10/2/1936 12:00,666.97
10/3/1936 12:00,667.05
10/4/1936 12:00,667.13
10/5/1936 12:00,667.12
10/6/1936 12:00,667.15
10/7/1936 12:00,667.08
10/8/1936 12:00,667.15
10/9/1936 12:00,667.20
10/10/1936 12:00,667.20
10/11/1936 12:00,667.22
10/12/1936 12:00,667.25
10/13/1936 12:00,667.30
10/14/1936 12:00,667.14
10/15/1936 12:00,667.25
10/16/1936 12:00,667.20
10/17/1936 12:00,667.12
10/18/1936 12:00,667.11
10/19/1936 12:00,667.10
10/20/1936 12:00,667.23
10/21/1936 12:00,666.90
10/22/1936 12:00,667.15
10/23/1936 12:00,667.25
10/24/1936 12:00,667.25
10/25/1936 12:00,667.23
10/26/1936 12:00,667.20
10/27/1936 12:00,667.26
10/28/1936 12:00,667.20
10/29/1936 12:00,667.18
10/30/1936 12:00,667.23
10/31/1936 12:00,667.29
11/1/1936 12:00,667.29
11/2/1936 12:00,667.35
11/3/1936 12:00,667.15
11/4/1936 12:00,667.34
11/5/1936 12:00,667.19
11/6/1936 12:00,667.21
11/7/1936 12:00,667.20
11/8/1936 12:00,667.20
11/9/1936 12:00,667.17
11/10/1936 12:00,667.16
11/11/1936 12:00,667.23
11/12/1936 12:00,667.20
11/13/1936 12:00,667.22
11/14/1936 12:00,667.21
11/15/1936 12:00,667.15
11/16/1936 12:00,667.16
11/17/1936 12:00,667.20
11/18/1936 12:00,667.33
11/19/1936 12:00,667.17
11/20/1936 12:00,667.23
11/21/1936 12:00,667.02
11/22/1936 12:00,667.30
11/23/1936 12:00,667.40
11/24/1936 12:00,667.28
11/25/1936 12:00,667.10
11/26/1936 12:00,667.25
11/27/1936 12:00,667.35
11/28/1936 12:00,667.12
11/29/1936 12:00,667.08
11/30/1936 12:00,667.12
12/1/1936 12:00,666.95
12/2/1936 12:00,667.00
12/3/1936 12:00,667.02
12/4/1936 12:00,667.05
12/5/1936 12:00,667.02
12/6/1936 12:00,667.04
12/7/1936 12:00,667.10
12/8/1936 12:00,667.00
12/9/1936 12:00,667.00
12/10/1936 12:00,667.10
12/11/1936 12:00,667.15
12/12/1936 12:00,667.20
12/13/1936 12:00,667.18
12/14/1936 12:00,667.30
12/15/1936 12:00,667.35
12/16/1936 12:00,667.42
12/17/1936 12:00,667.44
12/18/1936 12:00,667.46
12/19/1936 12:00,667.49
12/20/1936 12:00,667.45
12/21/1936 12:00,667.36
12/22/1936 12:00,667.25
12/23/1936 12:00,667.26
12/24/1936 12:00,667.32
12/25/1936 12:00,667.35
12/26/1936 12:00,667.37
12/27/1936 12:00,667.34
12/28/1936 12:00,667.24
12/29/1936 12:00,667.27
12/30/1936 12:00,667.36
12/31/1936 12:00,667.46
1/1/1937 12:00,667.68
1/2/1937 12:00,667.74
1/3/1937 12:00,667.60
1/4/1937 12:00,667.45
1/5/1937 12:00,667.30
1/6/1937 12:00,667.30
1/7/1937 12:00,667.32
1/8/1937 12:00,667.42
1/9/1937 12:00,667.42
1/10/1937 12:00,667.40
1/11/1937 12:00,667.36
1/12/1937 12:00,667.27
1/13/1937 12:00,667.25
1/14/1937 12:00,667.32
1/15/1937 12:00,667.33
1/16/1937 12:00,667.34
1/17/1937 12:00,667.34
1/18/1937 12:00,667.34
1/19/1937 12:00,667.31
1/20/1937 12:00,667.26
1/21/1937 12:00,667.28
1/22/1937 12:00,667.32
1/23/1937 12:00,667.35
1/24/1937 12:00,667.38
1/25/1937 12:00,667.37
1/26/1937 12:00,667.30
1/27/1937 12:00,667.29
1/28/1937 12:00,667.27
1/29/1937 12:00,667.29
1/30/1937 12:00,667.30
1/31/1937 12:00,667.30
2/1/1937 12:00,667.32
2/2/1937 12:00,667.29
2/3/1937 12:00,667.29
2/4/1937 12:00,667.34
2/5/1937 12:00,667.30
2/6/1937 12:00,667.30
2/7/1937 12:00,667.35
2/8/1937 12:00,667.36
2/9/1937 12:00,667.32
2/10/1937 12:00,667.33
2/11/1937 12:00,667.36
2/12/1937 12:00,667.38
2/13/1937 12:00,667.39
2/14/1937 12:00,667.40
2/15/1937 12:00,667.44
2/16/1937 12:00,667.37
2/17/1937 12:00,667.35
2/18/1937 12:00,667.36
2/19/1937 12:00,667.44
2/20/1937 12:00,667.49
2/21/1937 12:00,667.49
2/22/1937 12:00,667.15
2/23/1937 12:00,667.16
2/24/1937 12:00,667.17
2/25/1937 12:00,667.27
2/26/1937 12:00,667.30
2/27/1937 12:00,667.45
2/28/1937 12:00,667.54
3/1/1937 12:00,667.49
3/2/1937 12:00,667.44
3/3/1937 12:00,667.42
3/4/1937 12:00,667.52
3/5/1937 12:00,667.68
3/6/1937 12:00,668.28
3/7/1937 12:00,668.88
3/8/1937 12:00,669.20
3/9/1937 12:00,668.46
3/10/1937 12:00,668.84
3/11/1937 12:00,668.90
3/12/1937 12:00,668.88
3/13/1937 12:00,668.88
3/14/1937 12:00,668.70
3/15/1937 12:00,668.64
3/16/1937 12:00,668.36
3/17/1937 12:00,668.18
3/18/1937 12:00,668.10
3/19/1937 12:00,668.00
3/20/1937 12:00,667.95
3/21/1937 12:00,667.83
3/22/1937 12:00,667.83
3/23/1937 12:00,667.67
3/24/1937 12:00,667.76
3/25/1937 12:00,668.08
3/26/1937 12:00,667.95
3/27/1937 12:00,667.83
3/28/1937 12:00,667.66
3/29/1937 12:00,667.65
3/30/1937 12:00,667.58
3/31/1937 12:00,667.66
4/1/1937 12:00,667.82
4/2/1937 12:00,668.04
4/3/1937 12:00,668.34
4/4/1937 12:00,668.51
4/5/1937 12:00,668.74
4/6/1937 12:00,668.86
4/7/1937 12:00,669.14
4/8/1937 12:00,669.35
4/9/1937 12:00,669.69
4/10/1937 12:00,669.95
4/11/1937 12:00,670.12
4/12/1937 12:00,670.45
4/13/1937 12:00,670.70
4/14/1937 12:00,670.99
4/15/1937 12:00,671.30
4/16/1937 12:00,671.68
4/17/1937 12:00,672.10
4/18/1937 12:00,672.59
4/19/1937 12:00,672.80
4/20/1937 12:00,672.95
4/21/1937 12:00,673.03
4/22/1937 12:00,672.95
4/23/1937 12:00,672.90
4/24/1937 12:00,672.93
4/25/1937 12:00,673.08
4/26/1937 12:00,673.20
4/27/1937 12:00,673.36
4/28/1937 12:00,673.56
4/29/1937 12:00,673.78
4/30/1937 12:00,673.92
5/1/1937 12:00,673.76